IRNSS-1I (43286 NORAD) Tracking and Keplerian Element Data

This shows tracking and keplerian element data for the satellite.

Feedback or suggestion? Click here.




ElementValue
Catalog43286
NameIRNSS-1I
Epoch Orbit2384
Epoch Day277.04912406
Epoch Year2024
RAAN83.9242
Inclination29.3595
Eccentricity0.0020531
Argument of Perigee179.7025
Mean Anonmoly181.5316
Mean Motion1.0027896
Decay Rate1.11E-06
L11 43286U 18035A 24277.04912406 .00000111 00000+0 00000+0 0 9999
L22 43286 29.3595 83.9242 0020531 179.7025 181.5316 1.00278960 23843



Live tracking and technical data element details for IRNSS-1I (NORAD 43286). IRNSS-1I can be tracked NOW for your location showing map with azimuth and elevation plus other details from your city location.







IsCatalogInMostPopularTable: catalog: 43286, numindb: 5346
Update: records affected: 1



GetName: 43286 IRNSS-1I

Hit Count: updated at: Wed, 30 Apr 2025 17:09:13 GMT